Location: Winnipauk Village
(41.1295°N, 73.4171°W)
Time: 17:55:03
(UTC+00:00)

ISS - Visible Passes

Search period start: 24 July 2021 00:00
Search period end: 03 August 2021 00:00
Orbit: 419 x 421 km, 51.6° (Epoch: 24 July)

Date Brightness Start Highest point End Pass type
(mag) Time Alt. Az. Time Alt. Az. Time Alt. Az.
24 Jul -0.9 01:44:17 10° NNW 01:46:11 14° N 01:48:05 10° NE visible
24 Jul -1.8 03:20:53 10° NW 03:23:30 27° NNE 03:23:30 27° NNE visible
25 Jul -0.9 00:56:46 10° NW 00:58:36 14° N 01:00:28 10° NNE visible
25 Jul -1.6 02:33:42 10° NNW 02:36:23 21° NNE 02:37:38 18° NE visible
25 Jul -0.7 04:10:09 10° NW 04:10:34 13° WNW 04:10:34 13° WNW visible
26 Jul -1.2 01:46:29 10° NNW 01:48:52 18° NNE 01:51:15 10° ENE visible
26 Jul -1.8 03:22:51 10° NW 03:24:45 30° NW 03:24:45 30° NW visible
27 Jul -1.1 00:59:13 10° NNW 01:01:19 15° N 01:03:25 10° NE visible
27 Jul -2.8 02:35:36 10° NW 02:38:50 40° NNE 02:38:57 40° NE visible
28 Jul -2.1 01:48:23 10° NW 01:51:23 28° NNE 01:53:11 18° ENE visible
28 Jul -1.2 03:25:04 10° WNW 03:26:08 18° WNW 03:26:08 18° WNW visible
29 Jul -1.7 01:01:11 10° NNW 01:03:53 22° NNE 01:06:34 10° ENE visible
29 Jul -3.2 02:37:38 10° WNW 02:40:24 55° WNW 02:40:24 55° WNW visible
30 Jul -3.6 01:50:18 10° NW 01:53:40 64° NE 01:54:43 39° E visible
31 Jul -2.8 01:03:02 10° NW 01:06:15 40° NNE 01:09:04 13° E visible
31 Jul -1.8 02:40:07 10° WNW 02:42:01 22° WSW 02:42:01 22° WSW visible
01 Aug -3.1 01:52:29 10° WNW 01:55:42 43° SW 01:56:25 36° S visible
02 Aug -3.7 01:05:01 10° WNW 01:08:23 76° SW 01:10:53 17° SE visible
